Powrót do katalogu

SCOUT X-4 DEB

AktywnyLEO
NORAD 2011·DEBRIS·🇺🇸 United States

Wystrzelony Apr 29, 1965 z Wallops Flight Facility

Loading…

Następne Przeloty (najbliższe 24 godziny)

TLE

ŚwieżeSource: Space-Track

Epoka: Sep 14, 2026, 15:20 UTC

1 02011U 65032D   26257.63909675  .00001308  00000-0  21738-2 0  9992
2 02011  41.1972  97.5380 0219504  45.6173   2.8825 13.41107927989331

Śledź SCOUT X-4 DEB w czasie rzeczywistym z AllMySat

Download on the App Store